Time,TemperatureF,DewpointF,PressureIn,WindDirection,WindDirectionDegrees,WindSpeedMPH,WindSpeedGustMPH,Humidity,HourlyPrecipIn,Conditions,Clouds,dailyrainin,SoftwareType,DateUTC
2013-02-09 00:05:00,18.7,15.0,29.62,North,5,12.0,20.0,86,0.00,,,0.00,weatherlink.com 1.10,2013-02-09 05:05:00,
2013-02-09 00:19:00,18.5,16.0,29.61,NNE,28,11.0,20.0,88,0.00,,,0.00,weatherlink.com 1.10,2013-02-09 05:19:00,
2013-02-09 00:35:00,18.3,15.0,29.60,North,360,9.0,22.0,88,0.00,,,0.00,weatherlink.com 1.10,2013-02-09 05:35:00,
2013-02-09 00:50:00,18.1,15.0,29.59,NNW,334,10.0,21.0,88,0.00,,,0.00,weatherlink.com 1.10,2013-02-09 05:50:00,
2013-02-09 01:05:00,18.0,15.0,29.57,NNE,24,9.0,22.0,88,0.00,,,0.00,weatherlink.com 1.10,2013-02-09 06:05:00,
2013-02-09 01:20:00,17.8,15.0,29.59,North,360,4.0,14.0,88,0.00,,,0.00,weatherlink.com 1.10,2013-02-09 06:20:00,
2013-02-09 01:35:00,17.6,15.0,29.60,NNE,15,11.0,18.0,88,0.00,,,0.00,weatherlink.com 1.10,2013-02-09 06:35:00,
2013-02-09 01:50:00,17.6,15.0,29.60,North,355,6.0,18.0,88,0.00,,,0.00,weatherlink.com 1.10,2013-02-09 06:50:00,
2013-02-09 02:05:00,17.8,15.0,29.60,North,5,8.0,23.0,89,0.00,,,0.00,weatherlink.com 1.10,2013-02-09 07:05:00,
2013-02-09 02:20:00,18.0,15.0,29.59,NNE,19,15.0,16.0,89,0.00,,,0.00,weatherlink.com 1.10,2013-02-09 07:20:00,
2013-02-09 02:35:00,18.0,15.0,29.59,NNW,338,10.0,20.0,89,0.00,,,0.00,weatherlink.com 1.10,2013-02-09 07:35:00,
2013-02-09 02:50:00,18.0,15.0,29.59,WSW,256,6.0,20.0,89,0.00,,,0.00,weatherlink.com 1.10,2013-02-09 07:50:00,
2013-02-09 03:05:00,18.0,15.0,29.58,NNW,329,8.0,23.0,89,0.00,,,0.00,weatherlink.com 1.10,2013-02-09 08:05:00,
2013-02-09 03:20:00,18.1,16.0,29.58,WNW,294,6.0,25.0,90,0.00,,,0.00,weatherlink.com 1.10,2013-02-09 08:20:00,
2013-02-09 03:35:00,18.2,16.0,29.58,NNW,329,11.0,22.0,90,0.00,,,0.00,weatherlink.com 1.10,2013-02-09 08:35:00,
2013-02-09 03:50:00,18.6,16.0,29.58,NW,315,4.0,23.0,90,0.00,,,0.00,weatherlink.com 1.10,2013-02-09 08:50:00,
2013-02-09 04:05:00,18.9,17.0,29.58,North,9,13.0,23.0,91,0.00,,,0.00,weatherlink.com 1.10,2013-02-09 09:05:00,
2013-02-09 04:20:00,19.3,17.0,29.58,NNW,329,3.0,21.0,90,0.00,,,0.00,weatherlink.com 1.10,2013-02-09 09:20:00,
2013-02-09 04:35:00,19.8,18.0,29.57,NNW,345,15.0,23.0,91,0.00,,,0.00,weatherlink.com 1.10,2013-02-09 09:35:00,
2013-02-09 04:50:00,20.3,18.0,29.56,North,355,12.0,28.0,91,0.00,,,0.00,weatherlink.com 1.10,2013-02-09 09:50:00,
2013-02-09 05:05:00,20.7,19.0,29.56,NNW,340,9.0,29.0,91,0.00,,,0.00,weatherlink.com 1.10,2013-02-09 10:05:00,
2013-02-09 05:24:00,21.1,19.0,29.56,NNW,340,9.0,16.0,91,0.00,,,0.00,weatherlink.com 1.10,2013-02-09 10:24:00,
2013-02-09 05:35:00,20.9,19.0,29.56,NW,311,12.0,21.0,90,0.00,,,0.00,weatherlink.com 1.10,2013-02-09 10:35:00,
2013-02-09 05:50:00,20.7,18.0,29.57,NW,320,4.0,15.0,90,0.00,,,0.00,weatherlink.com 1.10,2013-02-09 10:50:00,
2013-02-09 06:06:00,20.7,18.0,29.57,NNE,28,4.0,15.0,90,0.00,,,0.00,weatherlink.com 1.10,2013-02-09 11:06:00,
2013-02-09 06:20:00,20.8,18.0,29.58,NNW,342,10.0,20.0,90,0.00,,,0.00,weatherlink.com 1.10,2013-02-09 11:20:00,
2013-02-09 06:35:00,20.7,18.0,29.59,North,360,4.0,14.0,89,0.00,,,0.00,weatherlink.com 1.10,2013-02-09 11:35:00,
2013-02-09 06:50:00,20.8,18.0,29.60,North,349,8.0,15.0,90,0.00,,,0.00,weatherlink.com 1.10,2013-02-09 11:50:00,
2013-02-09 07:05:00,20.9,19.0,29.61,North,355,8.0,15.0,90,0.00,,,0.00,weatherlink.com 1.10,2013-02-09 12:05:00,
2013-02-09 07:21:00,20.8,18.0,29.62,North,355,8.0,14.0,90,0.00,,,0.00,weatherlink.com 1.10,2013-02-09 12:21:00,
2013-02-09 07:35:00,20.6,18.0,29.62,North,11,3.0,15.0,89,0.00,,,0.00,weatherlink.com 1.10,2013-02-09 12:35:00,
2013-02-09 07:51:00,20.0,17.0,29.63,NE,46,2.0,13.0,88,0.00,,,0.00,weatherlink.com 1.10,2013-02-09 12:51:00,
2013-02-09 08:05:00,19.5,17.0,29.64,North,5,10.0,18.0,88,0.00,,,0.00,weatherlink.com 1.10,2013-02-09 13:05:00,
2013-02-09 08:20:00,19.2,16.0,29.64,North,360,6.0,14.0,87,0.00,,,0.00,weatherlink.com 1.10,2013-02-09 13:20:00,
2013-02-09 08:36:00,18.8,16.0,29.65,NNW,328,11.0,16.0,88,0.00,,,0.00,weatherlink.com 1.10,2013-02-09 13:36:00,
2013-02-09 08:50:00,18.6,16.0,29.66,NNW,348,4.0,12.0,88,0.00,,,0.00,weatherlink.com 1.10,2013-02-09 13:50:00,
2013-02-09 09:05:00,18.5,15.3,29.67,NNW,346,6.0,6.0,87,0.00,,,0.00,Wunderground v.1.15,2013-02-09 14:05:00,
2013-02-09 09:15:00,18.4,15.4,29.67,NW,322,4.0,9.0,88,0.00,,,0.00,Wunderground v.1.15,2013-02-09 14:15:00,
2013-02-09 09:21:00,18.4,15.0,29.68,North,9,7.0,14.0,87,0.00,,,0.00,weatherlink.com 1.10,2013-02-09 14:21:00,
2013-02-09 09:30:00,18.4,15.2,29.68,NNW,340,6.0,6.0,87,0.00,,,0.00,Wunderground v.1.15,2013-02-09 14:30:00,
2013-02-09 09:36:00,18.4,15.0,29.68,NNE,26,7.0,14.0,86,0.00,,,0.00,weatherlink.com 1.10,2013-02-09 14:36:00,
2013-02-09 09:45:00,18.5,15.0,29.69,NNW,345,6.0,9.0,86,0.00,,,0.00,Wunderground v.1.15,2013-02-09 14:45:00,
2013-02-09 09:52:00,18.6,15.0,29.69,NNW,327,4.0,19.0,86,0.00,,,0.00,weatherlink.com 1.10,2013-02-09 14:52:00,
2013-02-09 10:00:00,18.8,14.8,29.69,NNE,17,5.0,5.0,84,0.00,,,0.00,Wunderground v.1.15,2013-02-09 15:00:00,
2013-02-09 10:05:00,18.8,14.8,29.70,NE,51,6.0,6.0,84,0.00,,,0.00,Wunderground v.1.15,2013-02-09 15:05:00,
2013-02-09 10:15:00,19.0,14.7,29.71,North,355,5.0,16.0,83,0.00,,,0.00,Wunderground v.1.15,2013-02-09 15:15:00,
2013-02-09 10:20:00,19.0,15.0,29.71,NNW,344,5.0,16.0,84,0.00,,,0.00,Wunderground v.1.15,2013-02-09 15:20:00,
2013-02-09 10:36:00,19.5,15.0,29.71,WNW,288,5.0,15.0,82,0.00,,,0.00,weatherlink.com 1.10,2013-02-09 15:36:00,
2013-02-09 10:51:00,20.2,16.0,29.72,NNE,19,8.0,17.0,82,0.00,,,0.00,weatherlink.com 1.10,2013-02-09 15:51:00,
2013-02-09 11:06:00,20.7,15.0,29.72,North,350,8.0,18.0,79,0.00,,,0.00,weatherlink.com 1.10,2013-02-09 16:06:00,
2013-02-09 11:21:00,21.2,15.0,29.73,NNE,19,8.0,18.0,76,0.00,,,0.00,weatherlink.com 1.10,2013-02-09 16:21:00,
2013-02-09 11:37:00,22.0,15.0,29.73,North,355,3.0,21.0,75,0.00,,,0.00,weatherlink.com 1.10,2013-02-09 16:37:00,
2013-02-09 11:51:00,23.2,16.0,29.74,NNW,343,13.0,17.0,73,0.00,,,0.00,weatherlink.com 1.10,2013-02-09 16:51:00,
2013-02-09 12:06:00,23.5,16.0,29.74,NNE,12,5.0,21.0,72,0.00,,,0.00,weatherlink.com 1.10,2013-02-09 17:06:00,
2013-02-09 12:22:00,23.6,14.0,29.74,SSE,160,4.0,17.0,68,0.00,,,0.00,weatherlink.com 1.10,2013-02-09 17:22:00,
2013-02-09 12:37:00,23.4,15.0,29.75,NNE,21,4.0,21.0,69,0.00,,,0.00,weatherlink.com 1.10,2013-02-09 17:37:00,
2013-02-09 12:53:00,23.5,14.0,29.76,WNW,299,1.0,12.0,67,0.00,,,0.00,weatherlink.com 1.10,2013-02-09 17:53:00,
2013-02-09 13:07:00,23.0,14.0,29.77,NW,321,8.0,17.0,67,0.00,,,0.00,weatherlink.com 1.10,2013-02-09 18:07:00,
2013-02-09 13:22:00,22.9,13.0,29.77,NNW,338,7.0,18.0,65,0.00,,,0.00,weatherlink.com 1.10,2013-02-09 18:22:00,
2013-02-09 13:37:00,22.7,13.0,29.78,WNW,300,4.0,23.0,66,0.00,,,0.00,weatherlink.com 1.10,2013-02-09 18:37:00,
2013-02-09 13:52:00,23.1,14.0,29.78,WSW,252,10.0,14.0,67,0.00,,,0.00,weatherlink.com 1.10,2013-02-09 18:52:00,
2013-02-09 14:07:00,23.0,14.0,29.80,North,5,7.0,19.0,67,0.00,,,0.00,weatherlink.com 1.10,2013-02-09 19:07:00,
2013-02-09 14:22:00,23.4,14.0,29.81,NNE,15,5.0,9.0,67,0.00,,,0.00,weatherlink.com 1.10,2013-02-09 19:22:00,
2013-02-09 14:37:00,23.4,13.0,29.82,NNW,342,11.0,15.0,65,0.00,,,0.00,weatherlink.com 1.10,2013-02-09 19:37:00,
2013-02-09 14:52:00,23.4,15.0,29.83,North,355,11.0,14.0,69,0.00,,,0.00,weatherlink.com 1.10,2013-02-09 19:52:00,
2013-02-09 15:07:00,23.8,14.0,29.85,WSW,254,9.0,18.0,66,0.00,,,0.00,weatherlink.com 1.10,2013-02-09 20:07:00,
2013-02-09 15:22:00,24.2,14.0,29.85,WSW,242,4.0,15.0,64,0.00,,,0.00,weatherlink.com 1.10,2013-02-09 20:22:00,
2013-02-09 15:52:00,23.8,14.0,29.88,North,355,3.0,14.0,67,0.00,,,0.00,weatherlink.com 1.10,2013-02-09 20:52:00,
2013-02-09 16:07:00,23.2,13.0,29.89,West,281,3.0,17.0,65,0.00,,,0.00,weatherlink.com 1.10,2013-02-09 21:07:00,
2013-02-09 16:22:00,23.1,13.0,29.90,WNW,303,4.0,14.0,66,0.00,,,0.00,weatherlink.com 1.10,2013-02-09 21:22:00,
2013-02-09 16:37:00,23.2,12.0,29.90,North,355,7.0,20.0,62,0.00,,,0.00,weatherlink.com 1.10,2013-02-09 21:37:00,
2013-02-09 16:52:00,22.9,12.0,29.91,NNW,342,5.0,23.0,62,0.00,,,0.00,weatherlink.com 1.10,2013-02-09 21:52:00,
2013-02-09 17:07:00,22.7,11.0,29.92,North,355,6.0,16.0,61,0.00,,,0.00,weatherlink.com 1.10,2013-02-09 22:07:00,
2013-02-09 17:22:00,22.4,11.0,29.93,WNW,300,0.0,14.0,61,0.00,,,0.00,weatherlink.com 1.10,2013-02-09 22:22:00,
2013-02-09 17:37:00,22.0,10.0,29.95,North,5,12.0,18.0,61,0.00,,,0.00,weatherlink.com 1.10,2013-02-09 22:37:00,
2013-02-09 17:52:00,21.6,10.0,29.95,NNW,342,6.0,19.0,61,0.00,,,0.00,weatherlink.com 1.10,2013-02-09 22:52:00,
2013-02-09 18:08:00,21.2,10.0,29.97,NNE,17,6.0,14.0,61,0.00,,,0.00,weatherlink.com 1.10,2013-02-09 23:08:00,
2013-02-09 18:23:00,20.8,9.0,29.98,North,355,4.0,13.0,61,0.00,,,0.00,weatherlink.com 1.10,2013-02-09 23:23:00,
2013-02-09 18:38:00,20.4,9.0,29.98,NNW,342,5.0,19.0,61,0.00,,,0.00,weatherlink.com 1.10,2013-02-09 23:38:00,
2013-02-09 18:53:00,20.0,8.0,30.00,WSW,247,3.0,17.0,61,0.00,,,0.00,weatherlink.com 1.10,2013-02-09 23:53:00,
2013-02-09 19:07:00,19.7,8.0,30.00,WSW,254,2.0,12.0,61,0.00,,,0.00,weatherlink.com 1.10,2013-02-10 00:07:00,
2013-02-09 19:22:00,19.1,8.0,30.02,NW,304,4.0,14.0,62,0.00,,,0.00,weatherlink.com 1.10,2013-02-10 00:22:00,
2013-02-09 19:38:00,18.8,8.0,30.02,NNW,348,6.0,9.0,62,0.00,,,0.00,weatherlink.com 1.10,2013-02-10 00:38:00,
2013-02-09 19:53:00,18.2,7.0,30.03,NW,323,4.0,12.0,62,0.00,,,0.00,weatherlink.com 1.10,2013-02-10 00:53:00,
2013-02-09 20:08:00,17.8,7.0,30.04,NW,326,3.0,14.0,62,0.00,,,0.00,weatherlink.com 1.10,2013-02-10 01:08:00,
2013-02-09 20:23:00,17.4,6.0,30.04,NNW,346,5.0,10.0,62,0.00,,,0.00,weatherlink.com 1.10,2013-02-10 01:23:00,
2013-02-09 20:38:00,17.1,6.0,30.05,North,355,3.0,12.0,61,0.00,,,0.00,weatherlink.com 1.10,2013-02-10 01:38:00,
2013-02-09 20:53:00,16.6,6.0,30.06,West,281,6.0,14.0,62,0.00,,,0.00,weatherlink.com 1.10,2013-02-10 01:53:00,
2013-02-09 21:08:00,16.5,5.0,30.06,NNW,336,4.0,7.0,62,0.00,,,0.00,weatherlink.com 1.10,2013-02-10 02:08:00,
2013-02-09 21:23:00,16.3,5.0,30.06,WNW,286,3.0,11.0,62,0.00,,,0.00,weatherlink.com 1.10,2013-02-10 02:23:00,
2013-02-09 21:38:00,16.3,6.0,30.07,NW,311,1.0,12.0,63,0.00,,,0.00,weatherlink.com 1.10,2013-02-10 02:38:00,
2013-02-09 21:53:00,16.2,5.0,30.08,North,5,4.0,10.0,61,0.00,,,0.00,weatherlink.com 1.10,2013-02-10 02:53:00,
2013-02-09 22:08:00,16.1,5.0,30.07,North,355,1.0,11.0,61,0.00,,,0.00,weatherlink.com 1.10,2013-02-10 03:08:00,
2013-02-09 22:23:00,15.9,4.0,30.08,SE,132,2.0,9.0,60,0.00,,,0.00,weatherlink.com 1.10,2013-02-10 03:23:00,
2013-02-09 22:38:00,15.5,4.0,30.09,North,349,1.0,6.0,60,0.00,,,0.00,weatherlink.com 1.10,2013-02-10 03:38:00,
2013-02-09 22:53:00,15.5,3.0,30.09,North,355,2.0,10.0,59,0.00,,,0.00,weatherlink.com 1.10,2013-02-10 03:53:00,
2013-02-09 23:08:00,15.6,4.0,30.10,NW,323,0.0,7.0,60,0.00,,,0.00,weatherlink.com 1.10,2013-02-10 04:08:00,
2013-02-09 23:23:00,15.5,3.0,30.10,North,360,4.0,8.0,59,0.00,,,0.00,weatherlink.com 1.10,2013-02-10 04:23:00,
2013-02-09 23:38:00,15.4,3.0,30.11,North,355,2.0,6.0,58,0.00,,,0.00,weatherlink.com 1.10,2013-02-10 04:38:00,
2013-02-09 23:53:00,15.3,3.0,30.11,North,9,1.0,9.0,58,0.00,,,0.00,weatherlink.com 1.10,2013-02-10 04:53:00,